Regional Weather Roundup
Issued by NWS

Home | Current Version | Previous Version | Graphics & Text | Print | Product List | Glossary On
Versions: 1 2 3 4 5 6 7 8 9 10 11 12 13 14 15 16 17 18 19 20 21 22 23 24 25 26 27 28 29 30 31 32 33 34 35 36 37 38 39 40 41 42 43 44 45 46 47 48 49 50
000
ASUS43 KDMX 152307
RWRIA

WEATHER ROUNDUP FOR IOWA
NATIONAL WEATHER SERVICE DES MOINES IA
600 PM CDT MON SEP 15 2014

NOTE: "FAIR" INDICATES FEW OR NO CLOUDS BELOW 12,000 FEET WITH NO
SIGNIFICANT WEATHER AND/OR OBSTRUCTIONS TO VISIBILITY.

* - THESE STATIONS ARE NOT NWS STATIONS...THUS NOT UNDER NWS
QUALITY CONTROL.  THEY ALSO DO NOT REPORT WEATHER SUCH
AS PRECIPITATION OR FOG.

IAZ001>003-012>014-020>022-031>034-043>046-160000-
   NORTHWEST IOWA

CITY           SKY/WX    TMP DP  RH WIND       PRES   REMARKS
CARROLL *      CLOUDY    61  46  59 NE9       30.23R
CHEROKEE *     SUNNY     61  43  51 N6        30.23S
DENISON *      CLOUDY    59  45  58 NE10      30.21F
LE MARS *      SUNNY     61  43  51 NW7       30.24S
ORANGE CITY *  SUNNY     63  36  36 N3        30.23S
SHELDON *      SUNNY     61  41  48 VRB5      30.22S
SIOUX CITY     MOSUNNY   63  41  44 N6        30.24S
SPENCER        SUNNY     61  40  45 N7        30.23S
STORM LAKE *   SUNNY     59  46  63 N8        30.22F
$$

IAZ055>058-069>071-079>083-090>094-160000-
   SOUTHWEST IOWA

CITY           SKY/WX    TMP DP  RH WIND       PRES   REMARKS
ATLANTIC *     CLOUDY    59  48  67 NE7G13    30.22F
AUDUBON *      CLOUDY    61  52  72 N6        30.24S
CLARINDA *     MOSUNNY   61  48  63 N15       30.24R
COUNCIL BLFS * CLOUDY    63  48  59 VRB6      30.23R
CRESTON *      CLOUDY    57  48  72 N10G18    30.22R
HARLAN  *      CLOUDY    59  48  67 NE8       30.27S
LAMONI         PTSUNNY   62  51  67 N8        30.19S
SHENANDOAH *   MOSUNNY   61  48  63 N10G20    30.24R
$$

IAZ047>049-059>061-072>074-084-160000-
   CENTRAL IOWA

CITY           SKY/WX    TMP DP  RH WIND       PRES   REMARKS
AMES           MOSUNNY   59  46  62 N10       30.21R
ANKENY *       CLOUDY    59  46  63 N8        30.20S
CHARITON *     CLOUDY    61  52  72 N14G20    30.19R
DES MOINES     PTSUNNY   61  46  57 N10       30.20R
GRINNELL*      PTSUNNY   59  48  67 NW9       30.20R
KNOXVILLE *    CLOUDY    59  48  67 N13G21    30.19R
MARSHALLTOWN   CLOUDY    58  45  62 N10       30.20R
PELLA *        CLOUDY    59  50  72 N9        30.21R
PERRY *          N/A     59  46  63 N7        30.22R
$$

IAZ004>006-015-016-023>025-035-036-160000-
   NORTH CENTRAL IOWA

CITY           SKY/WX    TMP DP  RH WIND       PRES   REMARKS
ALGONA *       MOSUNNY   61  39  44 N10       30.22S
CLARION *        N/A     59  43  55 N7G14     30.21R
ESTHERVILLE    SUNNY     59  39  47 N10       30.22S
FORT DODGE *   CLOUDY    59  43  55 N5        30.23R
MASON CITY     MOSUNNY   59  43  55 N8        30.22R
FOREST CITY *  SUNNY     57  43  58 NW6       30.21R
IOWA FALLS *   CLOUDY    59  45  58 N7        30.21S
$$

IAZ007>011-017>019-026>030-037>042-050>054-066-160000-
   NORTHEAST IOWA

CITY           SKY/WX    TMP DP  RH WIND       PRES   REMARKS
CEDAR RAPIDS   PTSUNNY   59  50  72 N9        30.17R
CHARLES CITY * CLOUDY    59  45  58 N7        30.20R
CLINTON *      PTSUNNY   55  48  76 N12       30.18R
DECORAH *      PTSUNNY   55  45  67 VRB3      30.17R
DUBUQUE        PTSUNNY   55  49  80 N6        30.17R
MONTICELLO *   PTSUNNY   57  48  72 N9        30.17R
OELWEIN *      SUNNY     59  43  55 N7G15     30.19R
WATERLOO       CLOUDY    59  44  57 N10       30.18R
$$

IAZ064-065-067-068-078-160000-
   EAST CENTRAL IOWA

CITY           SKY/WX    TMP DP  RH WIND       PRES   REMARKS
DAVENPORT      CLOUDY    57  49  74 N12       30.16R
IOWA CITY      PTSUNNY   59  50  72 N9G20     30.18R
MT. PLEASANT * CLOUDY    61  52  72 N13       30.15R
MUSCATINE *    PTSUNNY   59  50  72 NE17      30.15R
QUAD CITIES    CLOUDY    58  51  78 N12       30.14R
$$

IAZ062-063-075>077-085>089-095>099-160000-
   SOUTHEAST IOWA

CITY           SKY/WX    TMP DP  RH WIND       PRES   REMARKS
BURLINGTON     PTSUNNY   61  55  81 N10       30.13R
FAIRFIELD *    CLOUDY    59  50  72 N12G18    30.17R
FORT MADISON * PTSUNNY   63  55  77 N8G16     30.14R
KEOKUK *       CLOUDY    63  57  82 N12G18    30.12R
OSKALOOSA *    CLOUDY    59  52  77 N13       30.19R
CENTERVILLE *  CLOUDY    59  52  77 N8        30.20R
OTTUMWA        CLOUDY    59  50  72 N12       30.16S
WASHINGTON *   CLOUDY    61  52  72 N14G22    30.16R
$$

ABBREVIATIONS USED IN REMARKS
   TC - TEMPERATURES IN CELSIUS
  WCI - WIND CHILL INDEX
   HX - HEAT INDEX
  VSB - VISIBILITY
$$



USA.gov is the U.S. government's official web portal to all federal, state and local government web resources and services.